Theta_e
329 332 334 340 345 348 349 349 349 349 348 349 348 348 347 347 347 346 346 345 345 345 344 344 342 341 340 340 341 342 342 343 342 341 342 342 343 343 344 345 347 347 348 349 350 351 351 350 348 349 347 348 349 349 349 350 350 350 349 349 348 347 346 346 348 349 349 349 349 348 348 349 350 350 351 351 351 350 349 348 347 345 344 348 351
327 333 334 334 345 347 348 349 349 349 349 349 348 347 347 346 346 345 345 344 344 344 343 343 343 341 340 341 341 342 344 343 342 343 343 343 343 343 344 345 346 347 347 349 350 350 351 352 353 351 351 350 348 349 349 350 350 349 348 347 348 349 349 349 348 349 349 348 348 348 348 348 348 350 351 351 350 349 348 347 347 343 343 350 350
324 330 334 335 343 346 347 348 349 349 349 349 347 346 347 346 346 346 345 344 344 344 343 343 342 341 341 341 341 342 344 344 344 344 345 344 344 344 344 345 346 347 347 349 350 350 350 352 351 350 349 347 347 348 349 349 349 348 347 348 347 347 347 348 348 348 349 349 348 347 346 348 349 350 350 351 351 350 348 348 347 346 346 351 349
323 328 334 336 340 343 346 348 348 348 348 348 347 348 348 349 349 348 345 344 344 344 344 342 341 341 341 341 342 343 344 345 345 346 346 344 345 345 345 345 346 347 347 349 350 350 350 348 348 350 347 345 346 348 348 347 347 347 345 346 346 347 346 347 347 347 347 347 346 343 341 341 345 349 349 349 350 350 347 347 347 348 350 349 350
323 325 331 331 334 338 344 347 347 348 347 347 347 348 347 348 349 348 346 344 344 344 343 342 342 341 340 341 343 344 344 345 345 346 346 346 346 346 345 345 347 348 348 349 350 350 348 348 349 347 345 346 346 347 347 347 346 345 345 345 346 345 345 346 346 345 344 344 342 339 333 337 341 348 349 350 351 349 347 348 348 348 348 348 349
322 326 330 330 331 333 341 344 346 347 347 347 347 347 347 347 348 348 347 344 344 343 343 343 343 342 342 344 344 345 345 344 344 346 346 346 346 347 346 346 347 348 349 349 349 349 349 348 349 347 347 347 346 346 346 346 345 345 344 345 345 345 345 345 344 344 342 341 338 333 334 334 338 344 349 351 351 349 348 347 347 347 348 347 346
321 324 327 330 332 334 338 342 345 346 347 347 346 347 347 346 347 348 347 344 343 343 343 343 343 343 344 344 345 345 345 342 343 345 346 346 347 347 347 346 347 349 350 349 348 349 349 349 348 350 346 344 345 345 344 345 345 344 344 344 344 344 344 343 342 341 339 334 330 331 330 332 336 339 349 350 351 349 348 348 348 347 347 347 344
318 322 325 328 332 334 337 339 343 346 346 346 346 346 344 345 346 348 345 345 345 342 343 343 343 343 345 345 345 344 345 343 344 345 345 346 347 347 347 347 348 349 349 348 350 348 350 349 348 347 346 344 344 344 344 344 344 344 344 344 344 344 343 342 340 338 336 329 329 330 333 335 338 339 348 349 350 349 348 346 347 347 346 346 343
317 319 322 325 328 333 335 338 341 344 346 346 345 343 344 344 346 347 346 345 345 343 343 343 344 344 344 344 344 344 344 344 344 344 345 345 347 347 347 347 348 350 349 347 348 350 350 348 346 344 346 344 342 342 343 344 344 343 343 344 344 343 341 340 338 335 331 329 330 332 335 338 338 339 346 348 349 348 347 345 344 346 346 344 342
315 317 320 321 322 331 335 337 340 343 345 344 343 342 342 345 346 347 345 345 345 342 343 344 343 340 337 340 342 343 344 344 344 343 344 345 346 346 347 347 348 348 348 347 349 349 349 349 348 347 346 344 342 343 344 344 343 343 343 343 343 342 341 339 336 333 329 330 332 333 336 339 338 339 343 348 347 347 344 340 341 341 343 343 342
314 315 318 320 322 331 336 338 339 341 343 343 342 341 342 344 346 346 344 344 343 344 342 338 340 340 340 338 339 341 342 343 343 343 343 344 344 345 346 345 346 347 346 346 349 346 345 348 348 347 345 344 342 343 343 343 342 342 343 343 343 342 340 337 333 329 329 331 332 334 338 339 338 339 347 346 347 347 342 341 341 343 344 344 344
313 316 317 320 326 332 336 338 339 341 342 342 341 341 342 343 344 345 342 344 342 344 341 341 338 338 339 338 338 338 341 342 341 340 342 342 343 343 344 345 346 345 345 346 344 341 349 349 346 345 344 342 342 342 342 342 342 342 342 342 342 340 337 334 329 328 329 330 330 331 333 337 338 339 344 345 346 347 344 344 344 344 343 343 344
312 316 319 321 322 331 335 337 339 340 342 341 342 342 342 342 343 346 344 344 343 343 342 341 340 338 335 337 338 339 339 338 339 340 341 341 342 343 344 344 346 344 344 344 343 342 344 342 343 344 344 342 342 342 341 342 341 341 341 341 339 337 334 332 327 328 328 328 328 328 330 335 337 342 344 344 345 344 343 342 343 343 343 342 342
312 316 320 321 321 327 333 336 338 339 340 341 341 340 342 342 343 344 344 344 342 343 342 338 336 337 336 338 339 338 338 337 337 338 338 341 341 342 341 345 345 343 344 343 342 343 344 345 344 343 343 342 341 341 341 341 340 341 340 339 337 335 331 329 329 327 327 327 328 327 328 333 336 342 342 344 343 344 342 342 341 342 342 342 341
313 315 319 321 322 324 327 333 335 338 339 340 340 339 341 341 341 343 343 344 344 344 342 337 337 337 337 338 338 338 337 337 337 337 337 340 341 341 342 343 343 341 342 342 345 344 345 343 342 341 342 341 341 340 340 340 340 339 338 336 334 332 330 326 326 326 326 327 328 329 329 331 340 341 341 341 342 342 341 341 341 340 340 340 339
315 316 319 321 321 322 325 327 332 335 337 339 339 339 339 340 341 343 341 343 343 342 339 337 337 336 336 337 338 339 338 339 338 338 339 340 341 341 341 342 341 341 338 339 344 344 343 342 341 339 339 340 341 341 340 339 338 337 335 334 331 329 327 325 325 324 325 326 326 328 329 333 340 341 340 340 340 341 341 339 339 338 339 339 339
321 320 321 320 320 322 324 326 328 331 331 333 334 335 336 338 340 342 339 342 341 340 339 336 335 336 337 338 339 339 340 339 340 341 340 340 341 340 340 340 341 339 341 340 341 341 341 339 338 339 339 339 339 340 340 338 337 335 333 331 330 328 325 323 323 322 323 324 325 327 330 331 338 338 340 340 340 338 339 338 338 338 338 338 338
323 325 325 323 322 322 324 326 329 330 330 328 328 331 334 336 338 339 337 339 340 340 338 336 334 337 337 337 336 336 336 339 340 341 340 341 341 341 340 339 339 338 340 340 339 339 339 339 339 339 339 338 339 339 338 336 335 333 332 331 328 326 323 321 320 320 322 324 323 325 329 336 338 338 338 339 338 337 337 336 336 337 337 337 336
322 325 327 326 326 324 325 327 328 329 330 327 327 329 331 333 335 335 335 338 338 337 336 335 334 335 335 333 331 329 329 332 335 336 338 337 336 336 338 339 338 339 339 338 339 338 337 338 338 338 338 338 337 337 335 334 333 332 331 329 325 323 321 320 318 319 319 320 321 325 330 337 337 337 338 337 337 337 336 335 335 336 336 336 335
321 324 326 327 327 326 326 328 329 328 328 325 327 327 329 329 332 333 334 335 334 334 333 333 329 327 328 328 326 325 326 327 326 331 332 335 333 331 334 340 338 335 336 337 338 337 337 337 337 338 339 338 337 335 334 334 333 332 329 326 322 319 319 317 316 316 316 317 320 324 334 337 336 336 337 337 336 336 335 335 335 335 335 334 333
321 323 325 325 326 326 327 328 329 328 326 326 327 327 328 328 328 328 329 330 330 330 330 327 323 322 321 321 321 325 323 324 323 325 322 326 324 325 332 337 336 334 335 337 337 338 337 338 338 339 339 337 333 332 329 332 332 330 327 324 319 320 318 317 316 314 314 316 319 323 334 335 335 336 336 336 336 335 334 334 333 333 333 332 332
319 321 324 325 325 326 327 328 328 329 326 326 327 327 326 328 327 327 327 327 326 325 324 322 318 321 320 322 323 320 321 321 323 321 321 323 323 324 328 334 336 333 333 337 337 337 338 338 338 339 338 334 329 329 327 326 327 326 323 319 320 319 318 317 316 314 314 316 319 328 334 336 334 335 335 334 335 334 333 332 332 332 331 331 330
318 320 322 325 325 326 327 327 328 328 326 326 327 326 325 324 324 325 325 325 323 321 322 322 322 322 322 323 320 321 318 321 322 322 321 321 324 323 327 332 334 332 331 334 335 336 337 337 338 337 335 330 326 325 325 325 322 317 316 320 319 319 318 316 315 315 315 316 320 330 333 334 334 334 334 334 334 333 332 332 331 331 330 330 330
317 319 320 325 325 325 326 328 327 327 327 326 326 326 327 325 324 323 324 323 323 322 322 322 322 323 324 323 320 319 317 320 319 317 317 322 321 321 324 325 326 326 324 328 331 333 335 334 333 332 327 323 323 323 322 321 319 320 319 319 319 318 317 316 315 313 314 318 323 330 332 333 333 332 333 333 333 332 332 332 331 331 331 329 330
315 316 319 323 325 325 326 327 327 327 327 326 326 325 325 325 323 322 322 321 320 320 321 321 321 322 322 322 321 317 316 320 322 322 320 319 321 322 325 325 325 325 323 324 324 323 323 323 321 318 318 320 319 318 320 319 318 318 318 318 318 317 316 316 315 314 315 320 324 328 330 333 332 332 333 332 332 332 332 332 331 330 329 329 328
313 316 319 322 325 326 326 326 327 327 327 326 326 324 324 324 322 322 321 320 320 319 320 320 320 321 319 320 318 319 317 319 320 321 321 321 323 324 326 324 322 322 322 320 319 317 317 317 317 317 317 319 318 317 318 317 317 317 317 316 317 316 316 314 314 315 317 321 324 326 329 332 331 331 332 333 332 332 331 332 331 330 330 329 327
313 316 318 322 325 326 326 327 326 327 327 325 326 323 324 324 322 321 321 321 321 321 320 320 319 318 319 318 319 318 318 317 320 321 321 322 322 324 325 323 321 321 320 319 316 314 314 314 314 315 316 316 316 316 316 317 317 317 316 316 316 315 315 314 314 315 317 319 321 323 325 328 331 331 332 332 332 332 332 331 330 330 328 327 327
311 315 317 321 324 326 326 326 326 326 327 326 325 324 324 323 322 319 320 319 320 321 321 320 320 319 318 320 320 321 320 319 321 321 323 321 322 324 323 322 320 320 320 318 315 313 313 313 314 314 314 314 314 314 314 315 315 316 315 315 315 315 314 313 314 315 316 318 319 320 323 326 329 330 331 332 331 332 332 332 331 330 328 325 326
312 314 317 320 324 325 326 326 326 325 327 326 324 324 323 323 321 321 322 319 321 321 321 321 320 319 319 320 320 321 321 321 321 320 322 323 322 323 322 320 319 319 319 317 315 313 313 313 314 314 314 313 313 313 313 313 314 314 314 313 313 313 313 313 313 314 314 317 318 318 322 325 329 330 330 330 331 332 331 332 330 330 329 327 325
313 314 316 319 323 326 325 325 326 325 326 326 324 323 323 322 322 322 322 319 321 321 320 320 321 320 320 321 320 321 321 321 322 321 322 321 320 321 319 319 318 316 317 316 314 314 313 313 313 314 313 313 313 312 313 312 313 313 313 313 312 312 312 313 312 313 313 315 317 318 319 322 327 331 331 330 330 331 331 331 331 330 329 327 325
313 315 316 319 322 325 325 325 326 323 325 325 325 324 323 323 321 322 323 321 322 321 321 321 320 320 320 321 321 319 319 317 319 319 320 320 320 320 318 316 316 315 314 315 315 314 313 313 314 314 314 313 312 312 313 312 311 312 311 312 310 310 310 310 311 312 314 313 315 316 319 319 324 326 328 330 330 330 330 330 330 329 329 327 326
312 314 315 319 322 324 325 326 326 325 324 324 323 324 323 324 322 323 322 322 322 321 321 320 318 320 320 321 322 321 318 319 318 318 318 315 318 320 317 316 314 314 314 312 313 313 313 312 312 313 312 312 311 311 312 312 311 310 310 309 309 309 309 309 310 311 311 311 313 315 318 321 320 323 325 329 328 328 328 329 328 328 328 328 326
312 314 315 317 321 323 324 325 326 325 324 324 324 324 324 324 323 323 322 322 321 321 320 320 320 319 319 320 320 319 317 319 318 317 315 317 318 318 317 316 315 314 313 312 311 311 312 311 311 311 311 311 311 310 310 311 309 308 309 309 309 307 308 309 309 309 309 309 309 311 316 318 319 318 320 323 327 328 328 328 327 327 326 327 326
310 313 315 317 320 323 323 324 325 325 324 325 324 324 324 324 322 323 322 322 321 321 319 320 319 319 319 318 317 316 314 316 318 317 317 316 316 317 316 313 311 311 312 312 312 310 311 310 309 311 310 310 310 309 309 309 308 307 308 306 307 306 306 307 306 306 306 307 306 308 312 315 316 317 319 319 322 325 327 327 327 327 325 324 324
310 311 314 317 318 322 323 323 322 325 323 324 323 324 323 323 323 323 322 322 321 321 321 320 320 320 319 319 318 317 315 316 317 317 315 316 316 315 315 313 311 312 312 310 309 308 310 310 309 310 308 309 308 308 309 308 307 307 307 307 306 304 305 305 305 304 305 305 305 305 309 312 312 312 313 314 312 318 323 327 327 326 326 324 323
309 311 314 316 317 320 322 323 322 324 324 323 324 324 323 323 323 319 322 322 321 321 320 320 320 319 319 319 319 316 316 316 317 317 316 316 315 312 312 311 311 312 312 310 310 307 307 308 309 310 308 306 307 305 307 307 307 307 305 306 305 306 305 304 305 304 303 305 304 304 306 306 309 307 308 310 313 315 319 322 325 328 328 325 325
305 310 312 315 316 318 320 322 322 323 324 324 324 324 323 323 322 321 322 321 321 321 321 320 320 319 319 319 318 315 316 316 317 317 316 314 314 312 308 310 310 311 310 310 310 309 308 308 307 308 310 306 307 306 305 307 305 305 304 304 304 305 305 305 305 305 305 306 305 304 305 304 304 306 306 307 309 312 314 318 320 320 321 326 328
301 307 311 314 316 317 319 322 323 323 324 323 323 323 323 323 322 321 319 320 320 321 321 320 319 319 319 318 316 315 315 315 315 315 314 313 313 312 309 308 310 310 310 309 309 308 308 308 305 305 308 307 306 306 305 304 304 303 302 302 301 302 302 303 303 303 306 306 306 305 304 304 305 304 304 305 305 307 309 312 313 314 314 321 325
299 304 309 312 315 317 318 320 322 323 323 323 322 323 323 323 322 321 320 320 320 320 320 319 319 319 318 318 315 314 314 315 314 313 313 311 311 310 309 309 309 308 307 307 306 307 307 307 307 304 305 308 307 306 304 303 302 301 299 298 298 298 299 299 301 304 303 305 305 304 304 304 304 303 305 304 303 304 304 303 303 304 310 317 323
299 303 306 310 313 316 319 321 321 323 323 323 322 321 321 319 319 319 318 318 319 317 319 319 319 318 317 316 315 315 314 313 313 313 312 310 309 306 308 308 308 308 308 306 306 306 307 305 305 305 303 303 304 304 303 301 298 297 295 294 293 296 298 298 299 299 301 302 303 302 303 302 303 301 301 302 303 303 304 301 300 300 303 310 316
299 301 304 307 311 315 318 319 321 323 322 322 321 320 318 318 319 318 317 318 318 318 318 319 318 318 317 317 315 314 313 313 312 312 312 308 308 307 307 307 308 309 308 308 307 306 307 306 304 304 303 302 299 302 301 301 298 294 293 292 291 290 293 296 296 297 297 298 300 301 300 302 301 301 299 298 299 298 299 300 299 298 298 297 304
297 299 302 305 309 314 317 319 321 322 322 322 322 321 321 320 319 318 318 318 317 316 316 318 318 317 317 317 315 314 313 313 311 312 311 309 308 306 306 306 307 307 308 307 306 303 305 305 304 302 302 303 299 300 301 303 297 296 294 291 291 291 292 290 293 291 293 295 298 301 301 302 300 298 297 299 297 296 295 296 298 298 296 296 296
297 298 300 302 306 311 315 318 320 321 322 322 322 321 322 321 320 319 319 318 319 318 318 318 317 317 317 317 315 315 314 313 312 311 311 310 309 307 306 306 307 306 306 305 304 303 305 305 305 304 300 297 297 298 301 304 294 295 294 293 289 291 294 292 289 287 289 292 295 298 298 299 297 296 297 298 297 295 293 293 295 296 296 295 293
296 297 299 301 304 307 313 317 319 321 322 321 317 322 322 322 321 320 320 319 317 316 318 318 317 317 316 316 316 315 313 312 312 311 311 310 309 308 308 307 307 306 307 305 303 303 304 305 305 304 302 299 297 297 297 298 298 297 293 291 288 291 289 292 289 289 286 288 293 294 295 296 293 291 295 298 294 292 290 290 293 293 293 291 290
296 296 298 300 303 306 309 314 318 320 321 317 320 320 321 320 321 320 319 318 317 316 316 315 316 315 315 315 315 315 313 312 312 311 310 310 309 309 308 307 307 306 307 305 303 303 303 306 306 303 303 302 298 296 293 293 300 302 292 289 288 289 291 289 290 289 284 289 288 288 291 291 291 291 293 290 287 287 287 289 287 287 289 289 290
296 297 297 299 301 303 306 310 315 318 320 320 321 320 318 319 318 316 314 314 313 312 311 311 313 313 314 316 315 315 313 312 312 311 310 309 309 309 307 306 306 306 307 306 305 303 303 304 305 305 304 303 301 299 295 290 296 297 296 293 293 291 290 287 293 291 284 284 285 285 286 287 288 288 287 287 286 286 286 287 285 287 286 286 287
297 298 297 297 298 301 304 307 311 315 318 320 319 317 320 319 319 317 316 315 314 314 315 316 315 316 316 315 314 314 314 312 310 311 310 309 309 308 307 306 306 305 304 305 303 302 303 304 304 305 306 304 302 300 298 293 291 291 291 286 286 285 292 291 293 284 286 286 284 285 285 285 284 285 286 285 284 284 285 285 284 285 285 285 285
297 297 297 298 298 299 301 304 307 309 314 318 319 318 319 319 318 318 316 317 315 314 315 315 316 315 315 315 314 313 314 313 311 310 310 308 308 308 306 305 305 305 303 303 303 302 301 300 301 303 303 304 304 303 300 294 297 296 287 287 286 286 291 286 291 292 287 287 285 284 283 283 284 284 284 284 283 283 283 283 284 284 285 285 286
298 298 298 298 298 299 299 302 305 308 311 314 316 318 316 319 319 318 316 316 317 316 315 315 314 314 314 315 314 313 313 313 312 311 310 309 306 307 306 305 305 304 301 303 302 301 300 300 299 299 300 301 305 305 302 297 300 296 287 284 285 285 285 284 289 284 284 286 283 283 283 283 283 283 283 284 283 283 283 283 284 285 286 286 285
299 299 299 299 299 299 299 300 303 305 308 312 315 316 317 316 319 318 317 315 315 315 315 314 314 314 313 314 314 313 313 312 312 311 310 310 308 307 305 304 304 303 301 302 302 302 301 300 299 300 299 299 299 301 301 299 300 296 293 289 285 283 283 284 283 283 284 288 286 284 283 283 283 283 283 283 283 283 283 283 284 284 284 284 284
299 299 299 299 299 300 300 301 302 304 306 309 313 315 316 316 318 319 318 316 315 315 313 313 313 313 312 313 313 313 313 312 312 311 311 310 309 307 306 305 304 302 300 301 299 301 301 301 300 299 298 299 298 299 300 298 297 293 291 290 293 289 287 285 283 285 284 283 283 282 282 283 284 284 284 283 284 284 285 284 283 283 283 283 284
Wind_Speed
5 6 4 5 10 11 12 14 15 13 13 13 13 13 13 12 12 11 11 11 11 11 11 11 11 11 10 9 9 10 9 9 9 9 9 8 8 8 9 9 10 11 12 12 12 12 12 14 19 17 19 24 25 24 22 21 21 22 20 19 18 18 17 17 15 16 17 17 18 18 16 15 15 15 15 15 14 11 7 8 7 6 6 13 18
5 6 3 3 10 11 14 15 16 14 14 14 14 14 13 12 11 10 10 10 10 11 11 11 11 11 10 11 11 10 11 10 10 10 9 8 7 8 9 10 11 12 12 12 12 12 13 17 20 21 20 18 23 22 21 22 22 21 20 20 17 14 13 12 12 13 14 13 14 15 15 15 16 15 15 15 14 12 8 7 9 7 6 16 16
1 4 3 4 6 9 13 15 16 16 15 16 15 14 13 12 11 11 10 10 10 10 11 10 10 11 11 11 10 12 11 11 10 10 9 9 8 9 10 11 11 12 12 13 12 13 15 17 19 20 21 21 21 22 22 22 21 21 22 19 17 15 14 13 14 14 14 14 13 13 12 12 15 16 16 16 15 13 9 9 10 9 10 16 13
1 3 3 5 6 7 10 12 15 15 15 14 12 12 12 11 10 10 10 10 10 10 10 10 10 10 10 11 12 11 11 11 11 10 10 10 9 10 10 11 12 13 12 13 13 13 14 19 17 16 22 19 19 22 22 22 20 21 22 19 18 16 15 14 16 15 14 13 12 9 6 6 10 15 16 17 16 15 11 12 12 13 18 17 18
3 3 3 3 4 5 10 9 11 12 13 14 13 12 11 11 10 9 8 10 11 11 11 11 12 11 10 11 11 11 10 11 10 10 11 11 10 11 11 12 13 13 13 14 14 17 17 20 18 18 15 16 19 21 21 21 21 21 21 19 19 17 16 16 15 16 15 10 9 7 4 5 6 13 16 17 17 14 13 14 14 17 16 17 18
3 3 2 3 3 3 7 7 9 11 12 13 13 12 10 11 10 9 10 11 11 12 12 12 12 12 12 12 11 11 11 10 9 10 10 10 11 12 13 14 15 14 15 15 16 18 17 14 16 20 19 20 20 20 20 21 21 21 21 19 19 18 16 16 14 13 11 9 8 5 5 4 5 8 18 18 18 15 14 16 16 16 17 18 13
4 3 3 3 3 3 6 8 7 11 13 12 13 11 8 7 9 9 10 12 12 12 12 12 13 13 14 13 13 12 11 10 9 9 9 10 10 11 14 16 16 15 16 16 16 18 18 18 17 19 20 20 21 22 22 22 22 20 20 19 19 18 17 15 14 12 10 7 4 4 4 5 4 4 18 18 19 18 17 18 17 17 16 18 17
2 3 3 3 3 4 7 8 8 9 14 11 13 9 7 10 12 10 12 13 12 14 14 13 13 13 13 14 13 12 11 10 10 9 9 9 10 11 14 16 17 16 17 17 18 18 21 21 20 24 22 20 19 19 19 18 19 19 19 19 19 18 17 15 13 11 11 5 4 4 5 5 5 3 17 19 20 19 19 18 18 18 16 17 13
4 3 3 3 3 8 6 7 8 8 12 12 8 8 9 12 14 12 12 11 12 15 14 14 14 13 13 14 12 12 11 11 10 9 6 7 9 11 13 15 17 17 17 15 19 18 20 19 20 21 22 21 21 22 22 22 20 19 19 19 19 18 16 15 13 11 7 5 5 5 6 6 5 5 16 20 21 20 20 17 14 18 18 14 13
4 3 3 3 4 8 8 6 8 9 11 13 8 10 11 12 13 12 13 13 13 14 14 11 7 1 10 14 12 12 11 10 9 6 4 2 6 10 12 14 16 15 16 16 17 18 23 22 25 23 24 23 21 21 22 22 21 21 20 19 19 18 17 15 13 8 6 5 6 6 6 7 5 5 15 21 21 19 17 12 8 9 11 14 15
4 3 3 3 3 8 9 8 8 9 10 10 10 10 13 13 10 10 12 13 13 7 3 1 3 9 11 8 17 11 10 9 6 7 5 3 5 8 10 5 6 13 12 16 19 21 21 23 23 23 24 22 21 20 20 20 20 20 19 19 19 18 17 15 10 6 6 7 6 6 7 9 6 6 20 22 23 21 18 15 15 16 18 19 20
4 2 3 3 4 8 8 9 9 9 9 10 8 11 11 11 10 11 11 13 11 6 5 5 5 5 6 9 14 16 9 6 6 6 5 4 5 8 8 6 7 9 11 17 19 16 19 24 23 25 23 20 19 20 20 20 20 20 19 18 18 17 16 13 8 7 7 7 6 5 5 6 7 12 23 23 23 21 17 17 20 21 21 20 22
3 3 3 4 4 6 8 9 8 9 10 11 11 12 12 11 10 8 10 10 8 7 8 7 6 6 4 7 11 13 7 5 8 7 5 4 7 8 8 8 9 11 15 17 18 18 19 19 24 25 24 22 20 19 19 19 19 20 17 17 17 17 14 12 8 8 7 6 5 5 4 7 8 17 22 23 24 22 22 21 22 21 20 22 22
3 4 4 4 4 6 7 8 8 9 11 11 13 14 13 12 11 6 4 6 7 11 11 7 3 9 11 10 8 7 7 8 7 11 6 7 6 10 10 12 13 13 16 19 20 22 21 19 22 24 24 23 20 19 19 20 20 18 16 16 16 16 14 11 9 8 7 6 5 5 4 5 8 19 22 22 23 24 22 22 21 22 21 21 21
4 4 4 4 4 5 7 9 8 10 11 12 13 12 12 12 11 6 3 4 9 12 12 11 9 7 7 7 7 9 8 10 11 13 12 8 7 7 11 12 14 10 10 18 22 21 21 22 21 23 23 23 22 20 19 20 19 15 16 16 15 13 13 8 7 7 7 6 5 5 4 3 13 20 20 22 23 23 22 22 21 21 21 20 19
4 4 4 5 5 4 5 7 10 10 8 11 12 12 12 12 11 8 3 3 11 12 13 12 9 9 9 9 9 11 12 12 15 15 13 9 8 10 13 15 14 13 10 7 18 23 23 21 23 23 23 22 22 21 20 18 16 14 14 14 12 12 12 7 7 6 6 6 5 5 5 5 15 19 20 20 21 22 21 20 21 20 20 19 19
4 4 5 5 5 5 5 5 7 8 5 6 9 11 12 12 12 8 3 7 12 13 13 14 11 12 12 11 11 10 11 14 16 16 12 11 10 11 12 16 15 12 17 15 17 17 21 24 21 22 22 20 21 20 18 16 17 13 12 11 13 12 11 8 6 5 5 5 4 6 7 5 13 17 19 21 20 20 19 20 19 19 19 19 19
4 5 6 5 5 5 5 5 6 6 4 3 6 11 13 15 13 8 6 9 11 13 13 13 10 14 12 11 9 9 9 11 13 13 12 10 11 11 14 13 17 12 18 22 23 22 23 21 20 21 22 21 21 21 19 18 16 12 10 12 12 12 11 9 6 5 5 5 6 5 6 10 14 19 20 20 19 19 19 18 17 19 18 18 18
3 5 5 6 6 5 5 6 5 5 5 6 7 8 15 14 11 8 8 10 11 11 11 14 14 9 7 5 6 8 8 10 14 15 15 13 11 10 12 16 15 15 21 20 20 21 22 22 23 22 19 18 19 20 21 20 16 14 14 11 15 13 11 7 5 5 5 5 5 6 6 12 13 18 20 20 19 18 18 17 17 18 18 17 18
4 5 6 6 6 7 6 6 6 6 5 5 6 7 10 12 10 9 10 12 12 12 12 11 10 9 8 8 9 7 6 5 7 11 17 16 14 9 11 13 15 12 12 19 22 22 20 21 21 22 22 23 24 23 20 18 19 17 14 12 14 13 7 6 5 4 3 3 4 5 9 13 16 16 18 19 19 18 18 16 17 17 16 15 16
4 5 6 6 7 8 8 7 7 7 7 7 6 9 10 11 9 11 13 13 12 12 11 10 2 3 5 8 7 5 4 5 3 1 2 3 7 13 12 14 18 13 11 16 18 18 20 21 21 22 21 21 20 21 19 17 16 15 15 14 14 8 7 6 6 3 2 3 4 4 11 12 15 16 17 18 19 19 18 17 16 16 15 16 16
6 5 7 7 7 8 9 8 7 8 7 6 5 3 5 8 7 8 8 10 11 10 8 9 7 5 5 6 5 3 3 3 5 4 1 1 5 12 14 14 18 16 11 12 13 14 17 19 20 19 17 18 18 11 12 14 16 15 16 14 9 7 6 7 6 4 3 3 3 6 11 11 14 16 15 16 17 19 19 17 17 15 16 16 16
9 8 8 9 8 8 8 9 9 8 9 7 5 5 4 5 6 8 8 9 8 7 8 10 7 7 6 6 5 4 3 5 4 5 6 8 6 10 14 14 16 17 13 12 12 13 15 17 19 19 19 19 11 8 9 9 9 14 13 10 7 7 7 7 5 4 3 3 4 8 10 12 13 16 16 17 17 18 18 18 18 17 16 16 17
11 10 9 6 7 8 10 10 10 8 9 7 6 6 6 7 7 7 7 7 7 7 7 8 8 7 8 7 6 4 3 5 7 9 9 6 3 4 8 12 14 17 10 5 10 11 12 14 15 16 13 7 7 7 8 8 7 5 5 6 7 7 7 6 6 4 3 3 4 11 10 13 14 16 18 18 16 18 18 17 18 17 18 17 17
8 5 5 8 9 10 9 10 10 8 9 8 7 7 7 7 6 6 6 6 6 6 7 7 6 7 6 6 7 4 3 6 6 5 4 4 5 7 6 5 6 9 12 5 6 8 8 8 8 7 6 7 8 7 8 8 6 6 6 6 7 6 6 5 5 4 4 5 6 12 9 11 15 16 17 17 17 17 18 18 19 18 18 18 19
4 8 11 9 11 10 10 8 9 10 10 9 9 7 7 8 7 7 7 6 7 6 6 6 6 6 5 5 5 6 6 5 7 7 6 1 8 8 8 6 6 7 8 7 5 6 7 7 7 7 6 7 8 7 7 8 8 6 6 5 6 6 6 5 4 4 4 6 8 12 8 9 15 16 17 19 19 19 18 19 18 17 18 18 18
8 10 8 9 9 10 10 9 10 10 12 9 8 8 7 8 8 7 8 7 6 7 6 6 6 6 6 5 7 6 6 6 8 8 6 7 7 6 9 9 8 8 8 8 7 6 7 6 5 6 6 6 7 6 7 7 8 8 7 6 6 6 6 5 4 5 6 6 6 9 6 6 11 17 20 19 19 20 20 19 19 18 18 18 18
5 10 8 10 9 12 12 11 10 11 11 11 10 9 7 8 9 8 8 7 8 8 7 7 6 7 6 6 7 7 7 6 6 8 10 9 8 6 6 7 8 7 8 8 8 6 7 7 6 6 7 6 7 6 6 6 7 7 7 6 6 6 6 5 5 5 6 6 5 5 7 5 8 12 18 19 18 18 21 22 19 19 19 17 15
11 12 9 9 12 11 12 13 12 12 10 11 11 9 8 8 9 9 9 8 8 9 8 7 7 6 6 6 5 6 6 7 7 7 7 11 8 8 8 7 7 7 8 9 9 7 7 8 8 7 6 7 7 7 6 6 6 6 8 7 6 6 6 5 5 5 4 5 5 4 4 2 5 14 18 18 18 19 19 21 18 17 18 19 17
18 11 9 12 10 11 13 15 14 12 11 10 10 10 10 10 10 10 9 9 8 8 8 7 7 7 7 6 6 7 7 7 7 7 9 9 7 7 7 7 7 4 5 10 8 8 7 8 8 8 8 8 7 6 7 6 6 6 7 7 6 5 5 6 6 6 4 5 4 3 5 3 6 11 15 19 20 18 18 20 20 17 17 19 17
12 11 13 12 10 11 13 15 13 11 10 11 11 11 11 11 10 10 9 10 9 7 8 8 7 7 8 8 7 6 7 6 6 8 7 9 9 8 8 7 7 6 4 7 9 9 8 7 8 8 8 8 7 6 7 7 6 6 6 8 6 6 5 6 6 5 5 5 3 2 4 8 15 14 11 14 20 19 18 16 17 19 17 18 17
11 17 15 11 11 15 15 13 15 13 11 11 11 12 12 11 11 10 10 10 9 8 7 7 7 8 9 9 9 8 6 7 7 6 8 4 4 8 8 8 7 6 7 6 6 9 9 8 7 7 7 8 7 6 6 8 6 6 6 7 6 6 5 5 6 5 5 4 5 4 6 9 15 14 10 10 15 15 20 20 16 15 18 18 18
12 16 12 9 14 16 15 15 15 15 14 13 11 11 11 10 11 11 10 10 10 9 9 8 7 6 7 9 9 9 7 8 8 9 7 9 7 8 8 7 8 6 7 8 7 8 8 9 7 8 8 7 7 6 5 7 8 6 6 6 7 6 5 6 6 5 5 5 4 4 5 6 7 13 14 10 12 9 16 19 18 17 16 17 18
11 10 8 13 15 11 11 12 13 15 16 15 12 10 11 10 9 10 10 10 9 9 9 9 8 7 7 7 6 6 8 7 8 9 9 8 7 9 8 7 5 6 8 7 9 7 9 9 8 9 7 8 9 7 7 7 6 6 6 6 7 6 6 6 5 5 5 5 4 3 5 7 8 7 8 12 15 13 12 15 16 17 16 15 16
10 9 14 19 16 12 11 11 15 15 15 15 14 14 12 11 11 10 10 11 10 10 9 9 9 8 8 9 8 10 9 8 6 9 8 6 8 8 10 8 8 8 8 6 7 6 8 11 9 9 8 7 7 6 7 8 7 7 6 6 7 6 6 6 6 5 5 4 5 4 4 7 8 7 8 6 6 11 6 12 13 15 16 14 13
13 14 14 13 13 14 14 14 15 17 14 16 15 13 12 12 12 11 10 11 10 10 9 10 9 8 8 9 9 9 9 10 9 7 9 9 8 7 6 8 9 8 8 6 8 7 6 8 7 11 10 8 8 6 5 8 7 7 5 6 7 7 7 6 6 6 4 5 5 5 5 5 9 7 7 6 5 6 13 13 13 14 11 12 16
13 13 13 12 13 14 14 15 16 19 18 15 13 13 11 12 12 12 12 11 10 10 9 9 9 9 8 9 10 10 10 9 10 9 9 9 8 9 6 9 9 9 9 9 9 8 8 8 6 6 9 9 8 8 5 7 6 6 6 6 6 7 7 6 6 6 4 6 5 5 6 5 7 9 7 7 6 5 10 14 13 12 11 12 12
11 12 11 11 13 12 12 14 13 14 14 15 15 13 13 12 10 10 10 11 11 10 9 9 9 9 9 10 10 11 10 10 10 9 9 9 9 9 10 9 9 9 8 8 8 7 8 9 8 5 9 10 9 10 8 6 7 6 6 6 5 6 6 6 5 4 6 5 5 6 5 4 6 7 8 7 6 6 7 10 11 10 11 10 11
9 8 8 8 8 9 9 11 12 13 12 13 13 14 13 12 10 11 11 11 10 10 9 9 9 9 10 11 10 9 11 11 10 8 8 8 7 8 10 10 9 9 8 7 7 8 8 8 9 6 5 9 9 9 9 8 8 7 7 6 5 5 4 5 4 5 5 5 5 3 3 5 6 5 7 8 7 6 6 6 5 5 6 10 10
7 5 5 6 8 9 9 10 11 11 11 12 11 11 11 11 11 9 10 12 12 11 10 10 9 9 9 10 10 10 10 11 10 10 9 9 8 9 9 9 10 11 10 10 8 8 10 9 8 9 8 6 7 9 10 10 8 8 7 7 5 4 4 4 5 4 3 4 5 4 4 3 5 5 5 5 8 7 6 5 5 4 4 7 9
8 5 5 7 8 10 10 13 12 13 11 10 11 10 11 10 13 13 12 13 13 12 12 11 11 10 11 11 10 10 11 11 11 10 10 9 9 9 10 9 11 12 12 12 12 11 9 9 10 9 11 9 4 7 9 13 11 6 7 6 6 4 4 4 5 5 4 3 3 6 3 4 4 5 3 4 5 6 6 5 5 4 4 4 5
11 6 6 7 7 8 11 13 12 14 15 14 12 14 15 14 15 17 15 12 12 13 13 12 12 11 12 12 11 10 11 12 11 12 11 12 10 10 11 11 11 11 12 12 12 10 10 9 9 8 6 10 6 8 11 13 6 9 8 4 4 5 3 4 4 3 3 2 3 5 4 5 4 3 2 5 5 5 4 5 4 5 3 4 3
9 10 8 6 6 7 10 11 12 12 15 16 13 13 14 15 14 14 16 12 11 12 11 10 11 11 12 12 11 11 12 11 12 12 11 11 11 11 12 10 11 11 10 9 9 9 10 12 12 11 9 4 6 5 10 10 8 9 8 8 3 4 1 2 2 3 3 2 3 4 4 5 4 2 3 4 4 4 3 2 3 4 3 2 2
8 7 8 7 6 6 9 11 13 14 14 15 15 13 12 14 13 10 11 11 9 9 11 10 10 12 12 12 11 11 12 12 12 12 11 11 12 12 11 11 10 10 12 11 11 12 10 11 11 11 11 10 7 8 3 8 12 14 9 6 5 6 3 6 3 0 1 0 1 4 4 5 4 3 3 5 3 3 3 2 2 1 1 1 1
14 13 10 10 7 8 10 11 12 14 14 14 15 17 11 9 11 10 9 9 6 8 9 11 11 11 11 12 13 13 14 14 14 14 12 13 12 11 12 11 11 11 10 12 12 13 12 12 12 11 13 12 9 6 2 5 13 11 10 7 3 4 7 4 6 1 1 1 0 1 1 4 5 4 4 3 2 2 2 2 1 1 1 1 1
16 15 12 10 9 10 9 9 10 11 14 15 17 14 17 13 12 13 13 14 13 14 16 17 16 16 16 14 14 14 14 14 13 14 13 12 12 12 12 12 11 11 10 11 12 11 12 12 13 13 12 11 11 10 6 1 6 9 10 5 5 7 9 6 8 7 0 1 1 0 1 1 1 3 3 4 3 2 1 2 1 1 1 2 2
15 14 14 12 10 10 10 9 10 11 14 15 16 12 14 18 18 16 15 17 19 17 18 17 16 14 13 14 13 12 13 13 12 12 12 12 12 12 12 11 11 11 9 9 10 12 11 11 10 11 13 12 12 12 13 9 2 2 6 4 4 2 12 12 10 6 5 3 1 0 2 1 0 2 3 2 2 3 1 1 3 2 2 1 1
16 14 14 13 12 11 11 11 9 11 12 14 15 16 16 14 19 21 16 16 16 14 16 17 16 14 15 15 12 12 14 13 13 13 12 12 12 11 11 10 11 10 10 10 11 10 9 7 7 7 8 10 14 14 13 11 16 11 6 6 4 4 9 4 6 11 5 9 4 2 2 1 1 1 0 2 1 2 2 1 1 0 0 0 0
15 14 15 14 12 11 10 11 11 11 12 15 16 17 17 17 16 17 19 16 15 12 11 11 13 14 15 14 14 13 13 14 13 14 13 13 10 12 11 11 11 10 9 9 8 9 11 11 9 8 10 10 11 10 12 13 12 11 9 3 6 5 4 1 7 5 7 8 2 5 3 3 3 3 2 1 1 0 0 0 0 0 0 0 0
14 13 14 14 12 12 12 12 12 10 10 12 16 18 19 18 17 17 21 20 14 12 10 12 12 13 16 16 15 14 12 12 13 14 14 14 13 11 11 12 12 12 10 10 11 11 10 9 11 11 10 11 8 10 12 11 9 6 10 9 6 4 4 2 3 5 2 5 10 11 7 7 6 0 2 3 3 2 1 1 2 1 1 0 0
14 14 14 15 16 14 13 14 16 14 11 12 14 18 19 18 19 20 19 18 20 17 14 13 13 13 15 15 14 14 13 13 12 13 14 15 15 13 12 12 11 11 11 11 11 12 11 12 9 7 9 12 10 10 11 11 9 8 8 10 11 12 11 8 8 7 6 4 6 6 5 5 9 6 2 2 3 3 3 3 3 2 1 1 1
Wind_Direction
224 194 208 213 198 194 191 192 192 199 204 210 208 202 203 205 205 203 201 199 198 197 194 194 203 208 214 213 214 215 216 219 224 220 217 207 199 200 198 199 198 196 193 194 198 197 194 173 175 168 175 164 155 155 146 140 136 133 129 126 126 128 130 132 133 129 126 125 120 121 122 121 115 112 110 108 103 102 84 95 94 94 100 106 105
175 185 194 215 198 188 190 194 193 200 205 208 208 204 207 211 210 206 205 204 204 203 200 198 196 205 208 213 212 214 217 220 223 222 227 221 219 214 206 204 200 196 193 196 195 192 191 173 169 167 169 168 159 149 144 139 137 131 129 128 119 109 106 104 115 112 111 112 117 119 124 125 124 120 116 114 113 115 104 102 99 101 103 107 105
355 159 194 204 205 198 199 197 198 200 206 208 209 207 211 210 208 206 206 206 209 210 208 205 205 204 203 210 208 212 216 221 219 222 221 225 230 230 220 211 204 197 195 195 187 182 175 167 167 166 166 173 158 146 143 139 136 131 130 120 117 112 109 109 111 112 113 115 115 118 119 125 127 125 124 122 119 116 103 96 102 105 112 103 101
169 187 178 194 214 214 211 209 204 204 205 213 211 203 208 210 204 202 202 208 213 215 216 212 211 207 206 202 208 211 218 218 216 219 224 223 231 232 227 221 207 198 196 192 174 166 170 163 177 175 162 164 152 141 140 139 134 133 132 126 120 118 114 110 112 112 111 114 111 105 118 123 121 125 126 124 119 114 99 98 100 109 111 112 110
228 191 182 201 215 221 215 214 211 208 207 213 214 212 211 218 206 203 202 210 217 217 215 215 211 203 205 207 209 213 217 219 220 225 223 221 227 231 229 225 211 201 195 189 176 169 170 165 164 163 159 154 146 137 135 136 137 135 133 125 123 120 117 111 111 115 116 103 89 96 102 114 114 126 126 122 114 103 100 101 109 111 110 106 108
218 208 192 210 221 237 234 233 215 212 215 215 213 216 218 218 216 205 201 211 218 222 220 218 212 205 206 206 207 212 215 216 225 235 230 226 227 230 226 223 214 205 197 192 175 172 170 163 171 167 168 156 142 134 135 135 136 135 132 125 123 120 116 111 108 106 99 87 88 86 88 99 117 126 125 118 111 103 110 112 110 113 109 108 101
209 205 204 206 208 235 249 241 241 214 213 218 214 215 226 243 245 223 205 207 220 227 226 223 217 210 207 202 203 209 212 210 219 234 241 237 236 232 221 219 214 207 200 196 179 172 164 160 169 150 156 148 141 137 138 138 136 132 128 125 122 118 114 111 107 103 91 84 85 78 78 86 104 130 122 116 113 112 113 116 115 112 113 116 121
216 206 212 204 189 210 235 259 261 239 214 219 217 216 216 221 243 237 218 208 218 225 226 224 223 220 214 208 203 206 203 201 214 228 232 242 239 231 220 213 213 207 201 198 180 169 162 165 164 160 147 142 132 129 128 129 132 130 129 126 122 118 115 112 105 94 91 88 83 82 79 82 90 115 122 118 113 113 111 111 110 113 117 110 105
223 201 202 209 205 199 218 251 266 263 228 224 197 182 216 233 238 231 215 212 220 224 226 224 223 223 220 215 206 204 207 199 211 221 237 235 245 224 208 209 211 207 206 192 182 165 168 163 159 158 150 141 142 139 141 137 133 133 133 126 121 117 114 107 99 91 88 90 85 85 83 84 89 108 114 112 111 111 110 109 112 114 111 103 99
210 197 195 199 208 205 202 224 249 258 247 225 197 197 217 240 239 220 206 215 224 223 228 238 232 288 292 267 224 206 203 202 207 201 228 220 241 214 194 205 212 210 209 185 174 181 167 164 167 156 149 143 140 138 138 136 137 138 133 125 121 117 111 104 97 89 96 95 91 88 93 97 97 115 113 108 108 103 102 106 112 107 102 106 110
194 190 185 197 207 211 204 205 230 254 256 237 223 206 220 237 237 222 208 216 221 206 123 170 193 220 210 235 278 240 205 201 196 193 184 155 190 197 177 169 210 211 214 180 172 182 173 168 163 154 146 141 137 135 133 134 136 135 130 125 121 116 109 103 94 96 94 94 92 91 105 107 108 118 111 111 110 107 106 104 100 99 103 106 105
193 168 170 183 197 206 207 207 217 234 253 237 216 220 230 231 237 227 214 219 212 180 199 211 207 227 263 244 252 270 234 189 167 221 163 153 177 191 181 164 169 174 145 170 168 185 171 166 164 155 141 135 134 133 132 133 137 135 129 123 120 112 106 101 99 102 99 95 95 97 101 110 115 124 116 113 110 109 109 107 107 105 108 110 107
182 167 176 176 189 204 203 208 218 236 245 234 224 218 229 233 237 237 223 217 190 188 191 205 205 222 275 239 223 252 256 216 219 220 192 162 179 197 193 160 160 157 153 159 166 176 175 172 161 149 140 139 137 133 133 134 138 134 126 121 116 111 106 104 108 106 103 101 96 93 100 114 122 119 114 114 112 110 108 108 107 105 106 107 107
169 179 168 176 185 200 196 204 215 234 248 241 236 223 221 230 233 228 250 222 199 182 170 149 209 207 224 248 251 221 237 210 227 242 203 164 174 184 203 148 150 153 152 151 160 165 156 153 153 144 140 139 136 135 135 138 139 131 122 117 113 110 107 107 112 111 110 105 102 99 96 109 121 117 115 115 111 108 105 105 105 104 103 101 105
176 189 177 173 182 191 203 208 216 230 238 244 234 224 230 238 233 231 248 216 152 168 175 156 190 205 223 233 219 215 209 208 215 214 229 155 148 161 172 151 139 144 156 160 151 154 149 152 149 147 142 140 138 139 139 138 135 124 120 116 114 108 109 114 112 114 112 107 105 96 84 98 119 114 114 115 111 108 107 106 104 103 102 100 100
189 185 174 183 179 186 200 215 219 224 233 239 220 219 227 237 232 214 197 169 148 143 150 170 194 213 223 226 223 208 206 197 203 205 200 157 139 139 133 124 124 135 166 131 149 147 152 157 159 146 142 141 140 139 137 131 122 118 117 115 107 100 111 112 113 112 113 111 108 103 105 127 113 113 115 114 113 111 109 109 108 107 103 102 99
197 189 177 187 186 185 200 216 220 217 216 230 202 217 228 238 236 213 166 151 152 153 156 170 201 213 217 218 226 219 213 195 196 188 188 164 156 145 137 128 111 111 130 140 136 135 145 146 140 142 141 141 143 139 127 121 121 119 116 108 105 102 108 108 109 112 114 112 101 95 105 102 117 118 115 112 112 113 111 111 111 109 108 106 101
212 202 192 182 189 195 196 211 220 216 194 193 230 231 227 235 228 199 149 145 147 150 156 152 193 221 212 225 220 214 220 206 188 174 176 180 162 155 134 128 126 138 121 122 127 128 130 136 138 139 141 150 152 141 120 121 123 124 119 112 105 104 111 108 109 114 109 102 97 99 106 113 118 112 113 113 115 115 111 114 115 110 108 105 104
206 225 202 183 199 206 209 203 211 215 190 179 207 232 229 224 213 196 159 148 141 147 149 163 183 207 208 243 219 217 231 217 178 177 180 181 170 164 141 137 137 136 124 122 117 119 131 138 142 141 143 144 137 128 140 144 137 128 122 117 113 112 108 105 104 105 106 100 101 104 111 119 123 121 117 116 115 112 112 112 111 107 106 107 107
234 222 209 198 189 202 222 212 201 205 186 180 205 206 223 207 198 187 161 149 147 153 154 165 171 179 194 214 217 202 197 168 176 187 188 181 172 162 145 135 120 122 131 131 129 135 141 141 144 151 156 150 145 149 156 145 144 138 136 123 120 112 104 103 98 91 97 102 100 106 128 125 127 126 119 116 114 113 110 109 110 108 111 114 112
232 225 210 205 192 197 209 213 203 198 187 180 208 192 203 186 177 167 159 157 159 162 162 127 44 271 183 188 173 175 183 177 128 338 3 197 195 158 146 134 128 137 131 132 131 138 145 147 150 152 152 151 150 149 149 148 142 134 126 123 117 107 113 106 97 90 85 95 94 102 117 134 134 129 126 119 116 112 110 108 110 112 115 115 107
217 221 222 210 200 195 199 205 201 190 174 174 193 206 191 170 165 165 162 163 166 167 123 127 205 200 189 159 153 143 158 146 116 94 40 305 256 171 146 135 134 140 159 139 124 131 141 147 149 153 152 146 143 140 138 137 134 125 126 120 113 117 117 109 106 109 105 87 98 105 107 126 139 134 128 122 115 111 110 113 113 112 114 114 117
228 224 224 210 203 201 195 202 203 190 171 164 179 172 177 163 162 164 167 166 169 157 150 164 178 182 180 170 158 146 146 155 137 144 97 207 238 188 141 136 128 135 160 135 123 120 128 140 144 148 147 141 135 133 129 131 128 124 122 118 119 117 112 106 105 109 110 114 106 116 120 131 140 138 126 125 121 115 115 113 117 117 115 118 117
222 214 220 209 202 204 201 201 197 191 176 168 167 167 172 165 155 162 164 165 163 161 163 166 172 182 178 167 169 156 159 155 142 135 122 142 172 308 129 125 120 124 136 128 115 117 103 109 123 124 126 122 117 121 121 115 118 110 97 110 116 122 114 114 112 110 107 97 106 111 118 136 138 134 129 123 123 120 120 120 117 119 121 120 118
220 215 221 213 202 205 201 201 194 189 178 172 162 165 172 152 153 160 163 162 162 164 168 169 176 183 176 167 164 153 145 140 144 140 123 135 156 162 151 132 116 123 130 118 104 106 103 109 103 102 106 113 114 119 120 116 113 109 110 112 117 108 102 100 112 111 99 93 104 115 132 146 133 132 130 120 118 124 125 124 122 124 123 121 117
200 204 213 208 207 203 201 200 193 191 184 176 170 160 167 156 158 164 162 166 164 168 171 173 180 180 173 168 152 153 147 147 136 140 127 287 183 188 143 134 111 113 106 94 85 98 105 110 116 118 116 117 120 119 122 124 117 107 99 97 103 102 95 91 93 83 80 98 111 122 138 138 131 130 126 124 133 131 129 124 124 125 124 124 122
209 221 202 210 206 201 198 194 197 194 191 175 162 155 176 162 159 164 167 175 170 166 178 180 183 178 176 167 162 171 165 158 148 155 146 163 235 187 153 142 140 131 117 109 108 105 104 102 101 105 105 108 110 110 115 121 122 122 115 110 102 95 94 92 82 81 82 88 109 118 118 145 133 129 126 131 136 136 130 127 125 126 119 121 122
219 229 209 208 203 201 192 193 200 194 193 180 172 169 170 163 166 164 176 182 171 176 181 185 175 184 182 179 179 171 170 161 159 152 165 165 227 173 148 137 133 137 123 115 116 117 119 115 111 104 101 99 102 100 104 107 111 115 114 105 99 96 94 90 91 88 88 87 91 104 120 116 129 141 132 138 142 136 137 131 133 131 124 128 124
233 227 215 211 209 197 188 196 198 196 194 182 179 180 169 167 164 172 179 182 187 181 181 174 183 182 187 181 174 174 173 165 170 161 157 170 217 160 150 143 132 140 133 125 130 138 129 127 125 118 113 109 108 107 107 101 104 107 111 107 102 99 99 97 90 86 83 100 104 113 133 117 167 147 135 137 137 137 135 127 131 130 128 126 131
226 218 211 216 208 192 192 197 196 196 196 187 181 181 179 172 173 179 179 174 197 185 175 182 182 176 182 184 185 180 177 168 174 161 157 171 191 144 139 139 134 137 157 136 138 132 133 125 126 128 124 119 115 119 117 108 103 107 111 110 102 105 106 104 94 93 94 92 95 87 90 32 110 128 140 137 134 138 135 129 133 132 131 128 130
225 220 219 214 202 190 199 196 195 194 194 194 189 187 180 182 177 178 175 182 184 181 186 182 180 183 180 177 185 182 174 162 168 163 163 168 169 155 139 135 139 150 134 138 135 132 127 130 139 138 132 123 119 123 118 113 110 106 111 109 111 104 98 95 95 100 101 100 100 86 118 130 100 101 106 133 141 144 129 130 136 134 133 128 134
212 224 219 206 198 201 199 191 193 193 192 194 189 188 187 187 179 176 182 181 175 178 186 189 187 187 180 181 182 176 166 173 164 171 164 155 197 141 141 144 155 155 130 121 116 126 127 123 116 110 112 116 116 114 119 117 111 113 114 110 112 107 103 96 92 98 103 96 96 106 135 126 117 111 117 152 143 140 136 137 137 132 132 132 133
228 228 221 201 206 204 195 194 191 190 196 197 191 186 184 185 183 182 180 179 176 177 180 186 191 188 183 183 181 172 163 166 167 167 172 160 177 155 153 159 163 151 120 123 115 114 114 114 110 107 104 104 108 108 108 115 120 119 115 118 115 104 101 97 94 88 88 82 77 99 113 112 112 122 131 121 127 127 137 139 137 137 136 136 137
239 233 217 215 213 202 197 194 190 191 195 198 196 195 189 186 184 184 179 179 180 179 184 183 180 179 185 191 176 158 162 166 163 172 182 165 176 157 156 153 145 136 126 134 126 126 122 116 124 120 129 133 134 137 128 114 114 121 118 124 109 111 108 93 90 85 80 67 54 75 117 112 101 96 107 130 136 151 136 132 137 136 136 135 136
247 233 217 219 211 201 193 195 193 195 191 194 193 196 193 190 187 187 183 180 181 185 182 179 177 180 175 181 179 176 174 178 173 173 161 186 170 165 160 161 154 145 135 123 102 106 127 134 137 127 127 123 120 130 130 127 130 128 132 128 115 107 94 100 93 79 76 70 67 67 80 105 99 91 99 93 91 94 88 134 139 144 145 137 141
241 234 230 228 218 209 198 198 192 195 195 195 193 191 189 188 186 187 186 183 180 183 182 180 176 173 178 183 186 179 174 183 180 176 170 178 172 160 159 151 149 141 131 134 120 117 117 123 142 140 133 129 126 112 120 127 129 126 129 117 118 112 102 100 95 84 63 78 68 71 72 84 104 98 97 96 90 94 93 86 72 60 72 142 155
252 244 235 228 224 215 206 198 192 196 199 200 194 189 185 188 188 183 184 183 182 184 182 177 174 171 177 185 185 174 176 182 191 186 179 173 170 152 157 160 150 142 148 152 152 145 142 136 139 141 131 134 129 123 119 122 117 114 103 99 103 111 109 106 106 107 86 68 69 70 82 71 95 107 95 94 81 81 78 84 80 73 76 75 81
263 254 245 233 229 222 214 205 200 196 194 197 200 197 192 188 187 185 180 184 186 186 180 176 180 177 176 186 185 172 175 178 188 192 183 174 171 160 159 164 148 145 145 151 157 145 136 140 139 140 138 136 141 139 134 118 116 108 93 88 77 84 101 105 109 105 104 98 68 69 81 96 92 102 107 104 96 88 80 75 78 79 78 76 85
274 266 261 253 248 238 229 221 208 199 197 193 194 195 192 188 182 183 185 186 187 187 180 179 180 177 182 183 183 175 172 175 182 181 174 166 167 159 161 160 143 139 142 146 139 146 145 154 144 132 135 143 142 137 131 124 110 96 83 61 68 79 76 84 87 94 92 106 98 79 77 78 93 88 104 108 107 94 86 76 77 78 69 75 85
288 282 273 258 247 244 234 226 216 205 201 196 188 190 184 182 177 179 190 191 188 185 184 180 175 179 184 182 183 178 171 171 177 178 173 167 166 161 159 161 151 149 152 149 152 160 160 147 140 135 124 103 116 131 127 113 92 88 89 66 54 65 72 80 79 69 72 81 98 81 70 54 81 84 84 104 112 113 107 106 101 99 89 82 90
294 284 267 247 238 236 236 230 219 207 203 204 195 189 184 184 185 186 192 189 185 182 182 179 177 181 184 184 184 181 175 168 174 175 175 169 168 163 155 172 159 159 160 167 166 163 163 158 143 140 136 130 116 134 135 123 113 70 66 81 65 41 64 81 82 70 65 70 96 104 106 87 75 85 72 85 98 107 116 119 115 102 96 97 90
312 311 263 246 237 238 238 240 229 216 209 211 207 202 196 191 189 189 187 185 180 181 185 181 180 181 181 184 184 183 180 175 175 178 175 174 168 155 159 171 168 161 163 161 163 162 158 149 150 131 144 139 142 160 153 126 130 143 132 105 51 35 31 63 70 55 62 69 100 117 124 118 111 102 72 88 79 84 91 109 109 102 114 131 145
287 294 283 271 246 234 239 241 237 226 217 210 215 215 206 198 197 197 189 187 190 185 180 180 175 177 181 185 185 182 181 180 178 178 178 177 172 165 172 169 167 158 147 151 150 157 164 164 162 150 148 130 119 184 168 148 125 123 111 96 139 103 354 41 37 44 26 49 108 115 128 121 126 117 116 97 86 75 62 59 97 115 117 91 88
317 299 297 277 260 240 238 237 237 234 226 218 215 226 223 214 210 202 197 190 184 180 173 171 179 178 184 186 189 183 180 182 181 180 180 181 176 174 172 171 168 161 159 156 161 170 175 170 164 155 149 141 147 183 213 139 138 138 149 160 163 125 126 253 175 24 329 13 99 141 149 144 141 122 102 119 118 108 89 60 70 57 59 54 51
338 331 315 299 279 256 243 239 237 237 235 225 218 219 225 225 205 202 188 184 163 176 169 180 186 185 183 189 192 185 185 183 182 182 182 181 179 177 175 172 166 170 165 163 166 177 180 178 165 155 160 156 155 148 206 174 154 160 126 121 108 175 201 156 131 243 22 124 188 43 124 146 152 152 137 112 94 92 102 95 86 67 74 94 103
340 333 323 299 287 279 262 247 244 241 242 233 217 212 211 213 207 196 191 186 190 179 181 179 182 189 193 187 187 188 187 185 183 182 182 180 180 179 176 169 170 171 176 173 175 174 178 176 177 167 161 154 152 149 151 280 180 157 161 132 153 167 150 176 144 199 14 298 271 253 172 220 151 139 114 132 133 124 83 159 155 195 204 202 189
332 327 323 315 300 285 277 259 245 241 241 241 230 219 219 204 209 216 207 197 193 193 188 185 187 189 184 183 183 186 186 186 183 184 182 181 179 178 176 172 171 173 175 164 167 177 181 185 174 170 170 154 151 165 168 169 124 206 174 123 112 134 146 147 185 97 177 237 328 177 250 294 104 129 145 149 144 138 201 182 199 215 230 252 211
326 324 320 318 312 298 287 271 253 244 240 239 236 221 218 216 204 206 216 216 209 201 186 186 186 185 187 181 178 183 187 187 183 185 184 182 179 177 174 174 174 175 169 173 172 168 166 164 176 170 151 165 171 171 170 165 175 186 164 129 89 114 155 106 141 161 129 157 213 14 38 21 56 14 166 163 171 197 183 228 271 314 303 314 233
329 328 323 313 308 307 294 279 261 246 239 238 240 232 223 216 214 210 211 218 218 210 198 186 183 181 186 186 181 181 188 189 187 183 183 183 183 179 177 175 175 173 177 168 153 164 171 170 168 162 166 173 183 172 167 185 184 171 156 145 127 131 131 52 153 133 143 152 176 185 163 36 59 30 13 48 39 54 46 89 175 108 3 334 285
328 328 331 323 317 319 309 292 280 261 247 240 236 237 230 220 216 212 209 205 210 210 199 194 186 178 186 189 186 182 183 189 190 188 185 184 183 181 179 178 176 175 178 172 171 177 174 176 178 174 169 172 173 166 179 180 192 158 182 146 137 106 113 110 172 152 92 160 167 183 165 150 143 159 16 27 16 20 42 90 86 69 71 273 326
335 338 340 341 338 333 323 314 301 287 268 249 239 238 235 225 218 216 216 206 197 200 200 196 189 182 187 187 188 187 183 187 187 191 189 187 186 183 180 182 180 176 178 174 172 178 181 183 177 174 172 170 170 174 172 179 174 157 174 174 179 173 172 171 177 184 148 142 110 130 137 153 146 128 26 13 43 38 46 49 62 60 74 81 73